Location: Cahas Mountain Overlook
(37.0833°N, 80.1000°W)
Time: 08:41:14
(UTC-05:00)

Hubble Space Telescope - Visible Passes

Search period start: 27 November 2021 00:00
Search period end: 07 December 2021 00:00
Orbit: 535 x 538 km, 28.5° (Epoch: 26 November)

Date Brightness Start Highest point End Pass type
(mag) Time Alt. Az. Time Alt. Az. Time Alt. Az.
27 Nov 3.5 04:31:46 14° SE 04:31:46 14° SE 04:32:59 10° SE visible
27 Nov 2.6 06:07:31 10° SW 06:10:52 24° S 06:14:14 10° SE visible
28 Nov 3.7 04:21:25 12° SE 04:21:25 12° SE 04:21:59 10° ESE visible
28 Nov 2.5 05:56:43 12° SW 05:59:39 24° S 06:03:00 10° SE visible
29 Nov 2.5 05:46:19 16° SW 05:48:26 24° S 05:51:45 10° SE visible
30 Nov 2.5 05:35:52 19° SW 05:37:12 23° S 05:40:27 10° SE visible
01 Dec 2.5 05:25:24 21° SSW 05:25:58 21° S 05:29:07 10° SE visible
02 Dec 2.7 05:14:56 20° S 05:14:56 20° S 05:17:44 10° SE visible
03 Dec 3.0 05:04:28 16° S 05:04:28 16° S 05:06:16 10° SSE visible
04 Dec 3.4 04:54:01 12° SSE 04:54:01 12° SSE 04:54:43 10° SSE visible
